TimeEST,TemperatureF,Dew PointF,Humidity,Sea Level PressureIn,VisibilityMPH,Wind Direction,Wind SpeedMPH,Gust SpeedMPH,PrecipitationIn,Events,Conditions,WindDirDegrees,DateUTC
12:14 AM,10.6,7.3,87,30.09,10.0,Calm,Calm,-,N/A,,Mostly Cloudy,0,2013-02-17 05:14:00
12:35 AM,13.1,10.2,88,30.09,10.0,Calm,Calm,-,N/A,,Overcast,0,2013-02-17 05:35:00
12:54 AM,14.5,11.1,86,30.09,10.0,Calm,Calm,-,N/A,Snow,Light Snow,0,2013-02-17 05:54:00
1:14 AM,14.9,11.3,86,30.10,10.0,North,3.5,-,N/A,,Overcast,350,2013-02-17 06:14:00
1:35 AM,15.3,11.3,84,30.10,10.0,NNW,3.5,-,N/A,,Overcast,330,2013-02-17 06:35:00
1:54 AM,15.8,11.5,83,30.10,7.0,Calm,Calm,-,N/A,Snow,Light Snow,0,2013-02-17 06:54:00
2:15 AM,15.8,11.7,84,30.10,10.0,Calm,Calm,-,N/A,,Overcast,0,2013-02-17 07:15:00
2:35 AM,16.0,11.3,82,30.10,10.0,Calm,Calm,-,N/A,,Overcast,0,2013-02-17 07:35:00
2:54 AM,15.3,10.9,83,30.10,10.0,Calm,Calm,-,N/A,,Overcast,0,2013-02-17 07:54:00
3:15 AM,14.0,9.9,84,30.10,10.0,NW,3.5,-,N/A,,Scattered Clouds,310,2013-02-17 08:15:00
3:35 AM,10.2,6.6,85,30.10,10.0,Calm,Calm,-,N/A,,Clear,0,2013-02-17 08:35:00
3:54 AM,10.6,7.3,87,30.11,10.0,Calm,Calm,-,N/A,,Clear,0,2013-02-17 08:54:00
4:15 AM,6.1,3.0,87,30.11,10.0,Calm,Calm,-,N/A,,Clear,0,2013-02-17 09:15:00
4:35 AM,6.3,2.8,86,30.11,10.0,Calm,Calm,-,N/A,,Clear,0,2013-02-17 09:35:00
4:54 AM,7.5,4.6,88,30.11,10.0,Calm,Calm,-,N/A,,Clear,0,2013-02-17 09:54:00
5:15 AM,6.6,3.4,87,30.12,0.5,Calm,Calm,-,N/A,Fog,Light Freezing Fog,0,2013-02-17 10:15:00
5:34 AM,3.6,-0.0,85,30.13,10.0,Calm,Calm,-,N/A,,Clear,0,2013-02-17 10:34:00
5:54 AM,2.8,-1.1,84,30.13,1.5,Calm,Calm,-,N/A,,Mist,0,2013-02-17 10:54:00
6:15 AM,3.9,0.5,86,30.14,10.0,Calm,Calm,-,N/A,,Mostly Cloudy,0,2013-02-17 11:15:00
6:34 AM,3.9,0.3,85,30.15,10.0,Calm,Calm,-,N/A,,Overcast,0,2013-02-17 11:34:00
6:55 AM,3.9,0.3,85,30.15,10.0,Calm,Calm,-,N/A,,Overcast,0,2013-02-17 11:55:00
7:15 AM,2.7,-1.3,84,30.15,10.0,Calm,Calm,-,N/A,,Mostly Cloudy,0,2013-02-17 12:15:00
7:34 AM,3.2,-0.4,85,30.16,10.0,Calm,Calm,-,N/A,,Scattered Clouds,0,2013-02-17 12:34:00
7:55 AM,4.1,0.5,85,30.17,10.0,Calm,Calm,-,N/A,,Clear,0,2013-02-17 12:55:00
8:15 AM,2.8,-0.8,85,30.17,7.0,Calm,Calm,-,N/A,,Clear,0,2013-02-17 13:15:00
8:34 AM,4.5,1.0,86,30.18,7.0,Calm,Calm,-,N/A,,Scattered Clouds,0,2013-02-17 13:34:00
8:55 AM,10.0,7.3,89,30.19,10.0,Calm,Calm,-,N/A,,Overcast,0,2013-02-17 13:55:00
9:15 AM,10.9,7.7,87,30.19,10.0,Calm,Calm,-,N/A,,Overcast,0,2013-02-17 14:15:00
9:34 AM,11.5,8.6,88,30.19,10.0,Calm,Calm,-,N/A,,Overcast,0,2013-02-17 14:34:00
9:55 AM,12.2,9.3,88,30.19,10.0,Calm,Calm,-,N/A,,Overcast,0,2013-02-17 14:55:00
10:14 AM,12.9,10.2,89,30.20,10.0,Calm,Calm,-,N/A,,Overcast,0,2013-02-17 15:14:00
10:35 AM,15.6,13.1,90,30.21,10.0,Calm,Calm,-,N/A,,Overcast,0,2013-02-17 15:35:00
10:55 AM,15.1,12.6,90,30.21,10.0,SW,3.5,-,N/A,,Overcast,220,2013-02-17 15:55:00
11:14 AM,16.5,11.7,81,30.21,10.0,Calm,Calm,-,N/A,,Overcast,0,2013-02-17 16:14:00
11:35 AM,17.6,9.9,72,30.21,10.0,Calm,Calm,-,N/A,,Overcast,0,2013-02-17 16:35:00
12:14 PM,18.7,8.4,64,30.21,10.0,Calm,Calm,-,N/A,,Overcast,0,2013-02-17 17:14:00
12:35 PM,19.4,7.9,61,30.20,10.0,Calm,Calm,-,N/A,,Overcast,0,2013-02-17 17:35:00
12:54 PM,20.7,8.4,59,30.19,10.0,Calm,Calm,-,N/A,,Overcast,0,2013-02-17 17:54:00
1:15 PM,21.2,8.1,57,30.18,10.0,Calm,Calm,-,N/A,,Overcast,0,2013-02-17 18:15:00
1:35 PM,22.1,7.9,54,30.18,10.0,Calm,Calm,-,N/A,,Scattered Clouds,0,2013-02-17 18:35:00
1:54 PM,23.2,10.0,57,30.17,10.0,Calm,Calm,-,N/A,,Clear,0,2013-02-17 18:54:00
2:15 PM,23.2,11.5,61,30.17,10.0,SSW,4.6,-,N/A,,Clear,200,2013-02-17 19:15:00
2:35 PM,23.0,10.4,59,30.17,10.0,Calm,Calm,-,N/A,,Mostly Cloudy,0,2013-02-17 19:35:00
2:54 PM,23.4,10.6,58,30.16,10.0,Calm,Calm,-,N/A,,Overcast,0,2013-02-17 19:54:00
3:15 PM,23.7,10.9,58,30.17,10.0,Calm,Calm,-,N/A,,Overcast,0,2013-02-17 20:15:00
3:34 PM,24.8,11.5,57,30.16,10.0,SW,3.5,-,N/A,,Overcast,230,2013-02-17 20:34:00
3:55 PM,25.2,12.2,58,30.16,10.0,SSW,3.5,-,N/A,,Overcast,200,2013-02-17 20:55:00
4:15 PM,25.3,9.9,52,30.15,10.0,West,5.8,-,N/A,,Mostly Cloudy,260,2013-02-17 21:15:00
4:34 PM,25.5,11.3,55,30.15,10.0,SSW,6.9,-,N/A,,Scattered Clouds,210,2013-02-17 21:34:00
4:55 PM,25.9,10.9,53,30.15,10.0,West,3.5,-,N/A,,Scattered Clouds,260,2013-02-17 21:55:00
5:15 PM,26.4,11.1,53,30.15,10.0,WSW,3.5,-,N/A,,Clear,250,2013-02-17 22:15:00
5:34 PM,25.7,11.1,54,30.15,10.0,SSW,4.6,-,N/A,,Clear,200,2013-02-17 22:34:00
5:55 PM,25.0,10.6,54,30.15,10.0,Calm,Calm,-,N/A,,Clear,0,2013-02-17 22:55:00
6:14 PM,23.0,11.3,61,30.14,10.0,SSE,3.5,-,N/A,,Clear,160,2013-02-17 23:14:00
6:35 PM,23.9,10.4,56,30.14,10.0,SSE,3.5,-,N/A,,Clear,150,2013-02-17 23:35:00
6:55 PM,23.5,10.9,59,30.14,10.0,Calm,Calm,-,N/A,,Clear,0,2013-02-17 23:55:00
7:14 PM,23.5,11.3,60,30.14,10.0,SE,3.5,-,N/A,,Clear,140,2013-02-18 00:14:00
7:35 PM,22.8,12.0,63,30.14,10.0,SE,4.6,-,N/A,,Clear,130,2013-02-18 00:35:00
7:55 PM,22.3,11.1,62,30.13,10.0,SE,4.6,-,N/A,,Clear,130,2013-02-18 00:55:00
8:14 PM,22.1,11.3,63,30.13,10.0,SE,4.6,-,N/A,,Clear,130,2013-02-18 01:14:00
8:35 PM,22.1,11.8,65,30.14,10.0,SE,4.6,-,N/A,,Clear,140,2013-02-18 01:35:00
8:55 PM,22.1,11.7,64,30.14,10.0,SE,4.6,-,N/A,,Clear,140,2013-02-18 01:55:00
9:14 PM,22.1,11.3,63,30.14,10.0,SSE,4.6,-,N/A,,Clear,150,2013-02-18 02:14:00
9:35 PM,21.7,11.3,64,30.14,10.0,SSE,4.6,-,N/A,,Clear,150,2013-02-18 02:35:00
9:55 PM,21.7,11.8,66,30.14,10.0,SSE,4.6,-,N/A,,Clear,150,2013-02-18 02:55:00
10:14 PM,22.1,12.4,66,30.13,10.0,SE,5.8,-,N/A,,Clear,140,2013-02-18 03:14:00
10:35 PM,22.5,12.2,65,30.13,10.0,SSE,5.8,-,N/A,,Clear,150,2013-02-18 03:35:00
10:54 PM,22.1,12.2,66,30.13,10.0,SSE,4.6,-,N/A,,Clear,150,2013-02-18 03:54:00
11:15 PM,22.6,12.4,65,30.12,10.0,SSE,6.9,-,N/A,,Clear,150,2013-02-18 04:15:00
11:35 PM,23.0,12.2,63,30.12,10.0,SSE,6.9,-,N/A,,Clear,150,2013-02-18 04:35:00
11:54 PM,23.0,12.2,63,30.12,10.0,SSE,6.9,-,N/A,,Clear,160,2013-02-18 04:54:00